[[{"header":{"parameterUnit":"m.s-1","parameterCategory":1,"la1":30.2991,"la2":30.254,"lo1":-89.0895,"lo2":-89.0444,"dx":0.0017,"dy":0.0017,"nx":28,"ny":28,"refTime":"2022-12-13T15:00:00:Z","depth":0,"parameterNumber":2,"parameterNumberName":"U-component_of_WINDS"},"data":[0,0,0,0,0,0,0,0,0,0,0,0,0,0,0,0,0,0,0,0,0,0,0,0,0,0,0,0,0,0,0,0,0,0,0,0,0,0,0,0,0,0,0,0,0,0,0,0,0,0,0,0,0,0,0,0,0,0,-5.3013,-5.3015,0,-5.3207,-5.321,-5.3212,-5.3264,-5.3263,-5.3262,-5.326,-5.3455,-5.3461,-5.3468,0,0,0,0,0,0,0,0,0,0,0,0,0,-5.2686,-5.2691,-5.3013,-5.3016,-5.3018,-5.3207,-5.321,-5.3212,-5.3264,-5.3263,-5.3261,-5.326,-5.3453,-5.3461,-5.3468,0,0,0,0,0,0,0,0,0,0,0,0,0,-5.2848,-5.2693,-5.3013,-5.3067,-5.3074,-5.3206,-5.321,-5.3213,-5.3264,-5.3263,-5.3261,-5.3259,-5.3451,-5.346,-5.3469,-5.3561,0,0,-5.3498,-5.3502,0,0,0,0,0,0,0,0,-5.2839,-5.286,-5.3056,-5.3063,-5.3071,-5.321,-5.3166,-5.333,-5.3265,-5.3192,-5.326,-5.3258,-5.3375,-5.339,-5.343,-5.357,-5.3579,-5.3499,-5.3504,-5.3508,-5.3511,0,0,0,0,0,0,0,-5.2828,-5.2852,-5.309,-5.3059,-5.3068,-5.3081,-5.3102,-5.3197,-5.329,-5.3198,-5.3202,-5.3225,-5.3378,-5.3421,-5.3435,-5.3581,-5.3498,-5.3507,-5.3512,-5.3516,-5.3808,-5.381,0,0,0,0,0,0,-5.2808,-5.2843,-5.3084,-5.3096,-5.2949,-5.3088,-5.3112,-5.3167,-5.3289,-5.3307,-5.3226,-5.3226,-5.3406,-5.3424,-5.3442,-5.3558,-5.3508,-5.3517,-5.3522,-5.3805,-5.3808,-5.381,0,0,0,0,0,0,-5.28,-5.2829,-5.3076,-5.2971,-5.3003,-5.3095,-5.3157,-5.3172,-5.3214,-5.3311,-5.3327,-5.3252,-5.3405,-5.3429,-5.3532,-5.3565,-5.3521,-5.353,-5.3803,-5.3806,-5.3809,-5.3789,0,0,0,0,0,0,-5.2791,-5.2826,-5.2862,-5.2971,-5.3008,-5.3162,-5.3159,-5.3177,-5.3231,-5.3233,-5.334,-5.3356,-5.3406,-5.3517,-5.3541,-5.3577,-5.3537,-5.38,-5.3804,-5.3808,-5.3787,-5.3791,-5.3795,0,0,0,0,0,-5.2779,-5.2847,-5.2863,-5.2892,-5.3056,-5.3164,-5.3185,-5.3242,-5.3233,-5.327,-5.3332,-5.3352,-5.3559,-5.3527,-5.3554,-5.3594,-5.3798,-5.3803,-5.3808,-5.3785,-5.379,-5.3795,0,0,0,0,0,0,-5.2737,-5.2862,-5.2881,-5.2987,-5.3065,-5.3173,-5.322,-5.3246,-5.3326,-5.3325,-5.3392,-5.3415,-5.3513,-5.3565,-5.3528,-5.369,-5.3679,-5.3689,-5.3652,-5.3658,-5.3662,-5.3646,-5.3545,0,0,0,0,0,-5.2741,-5.282,-5.2925,-5.3008,-5.3046,-5.3127,-5.3176,-5.3214,-5.3296,-5.3329,-5.3398,-5.3477,-5.3559,-5.3612,-5.3693,-5.3796,-5.382,-5.3837,-5.3841,-5.3843,-5.385,-5.3909,-5.3917,-5.3826,-5.3826,-5.3826,0,0,-5.2748,-5.2826,-5.2871,-5.3002,-5.3066,-5.3145,-5.3154,-5.3237,-5.3296,-5.3341,-5.3442,-5.3496,-5.3588,-5.3692,-5.374,-5.3737,-5.3882,-5.3849,-5.3851,-5.3857,-5.3915,-5.3923,-5.3931,-5.3829,-5.3829,-5.3828,0,0,-5.2801,-5.2869,-5.2946,-5.3011,-5.311,-5.3164,-5.3182,-5.3287,-5.3325,-5.3429,-5.3464,-5.3536,-5.3677,-5.3741,-5.3792,-5.3873,-5.3894,-5.3898,-5.3916,-5.3972,-5.398,-5.3986,-5.4014,-5.4023,-5.3906,-5.3906,-5.3906,0,-5.2797,-5.2919,-5.2982,-5.3064,-5.312,-5.3168,-5.3246,-5.3306,-5.3425,-5.3462,-5.3458,-5.3637,-5.3702,-5.382,-5.3841,-5.3881,-5.3904,-5.3884,-5.3974,-5.3981,-5.3988,-5.4015,-5.4026,-5.3905,-5.3905,-5.3905,-5.3905,0,-5.2908,-5.2993,-5.3043,-5.3159,-5.3221,-5.33,-5.3375,-5.3431,-5.3464,-5.3518,-5.3623,-5.3704,-5.3802,-5.3834,-5.3867,-5.3958,-5.3953,-5.3961,-5.395,-5.3995,-5.4022,-5.4033,-5.3905,-5.3905,-5.3905,-5.3905,0,0,-5.2937,-5.3089,-5.3106,-5.316,-5.3274,-5.3339,-5.3422,-5.352,-5.3566,-5.3648,-5.3718,-5.3838,-5.3846,-5.3904,-5.3945,-5.3994,-5.4053,-5.3996,-5.3999,-5.4002,-5.4157,-5.4149,-5.416,-5.4069,-5.4072,-5.4073,-5.4149,0,-5.3002,-5.3152,-5.3213,-5.3333,-5.3411,-5.3459,-5.3531,-5.3608,-5.3662,-5.3736,-5.3796,-5.3879,-5.3884,-5.3919,-5.3971,-5.4034,-5.4084,-5.403,-5.4133,-5.4136,-5.4106,-5.4174,-5.4166,-5.4233,-5.416,-5.4162,-5.4163,0,-5.3098,-5.3182,-5.3311,-5.3417,-5.3452,-5.3515,-5.3611,-5.3682,-5.3771,-5.3807,-5.3873,-5.3912,-5.4,-5.3987,-5.4108,-5.407,-5.4117,-5.4155,-5.4159,-5.4168,-5.415,-5.4183,-5.4256,-5.4265,-5.4181,-5.4179,-5.4178,0,-5.3104,-5.325,-5.3346,-5.3391,-5.3517,-5.356,-5.3614,-5.3702,-5.3758,-5.3842,-5.3879,-5.3971,-5.4021,-5.4092,-5.4155,-5.414,-5.4271,-5.4262,-5.4301,-5.43,-5.4324,-5.4321,-5.4402,-5.4358,-5.4358,-5.4358,-5.4357,0,-5.3169,-5.3245,-5.335,-5.3409,-5.3496,-5.3566,-5.365,-5.3708,-5.3786,-5.3857,-5.3905,-5.3969,-5.405,-5.4125,-5.4176,-5.4268,-5.4291,-5.4321,-5.4333,-5.4316,-5.4311,-5.4345,-5.434,-5.436,-5.436,-5.4359,-5.4359,0,-5.3188,-5.3262,-5.3369,-5.3481,-5.3511,-5.3571,-5.3666,-5.3725,-5.3783,-5.3871,-5.3896,-5.3986,-5.4077,-5.4148,-5.4267,-5.4301,-5.4398,-5.4412,-5.4368,-5.4373,-5.4408,-5.4403,-5.4511,-5.4529,-5.4474,-5.4475,-5.4475,0,-5.3223,-5.3284,-5.3403,-5.3454,-5.3509,-5.3591,-5.3649,-5.3721,-5.3779,-5.3887,-5.3932,-5.4028,-5.4107,-5.4251,-5.4326,-5.4418,-5.4433,-5.4465,-5.4447,-5.4427,-5.4431,-5.4426,-5.4432,-5.4466,-5.4466,-5.4466,-5.4467,0,-5.3278,-5.3312,-5.3394,-5.349,-5.3558,-5.3636,-5.3715,-5.3755,-5.3841,-5.3904,-5.3999,-5.4061,-5.4184,-5.4277,-5.4377,-5.4433,-5.4464,-5.4473,-5.4486,-5.4467,-5.4438,-5.4453,-5.4371,-5.4469,-5.4468,-5.4468,-5.4468,-5.4468,-5.3305,-5.3361,-5.3454,-5.3544,-5.3613,-5.3686,-5.3747,-5.3814,-5.3894,-5.4,-5.4038,-5.4136,-5.4225,-5.4363,-5.442,-5.4497,-5.4498,-5.4518,-5.4522,-5.4525,-5.4523,-5.4429,-5.4515,-5.4515,-5.4515,-5.4515,-5.4515,0,-5.336,-5.3424,-5.3506,-5.3617,-5.3688,-5.3714,-5.3804,-5.3861,-5.3947,-5.4028,-5.4107,-5.4216,-5.4308,-5.4392,-5.4488,-5.4534,-5.455,-5.4556,-5.4552,-5.4564,-5.4517,-5.4495,-5.4541,-5.4541,-5.4541,-5.4541,-5.4541,-5.4541,-5.3397,-5.3494,-5.3539,-5.367,-5.3733,-5.3829,-5.3878,-5.3946,-5.4012,-5.4133,-5.421,-5.4265,-5.4348,-5.445,-5.4536,-5.4558,-5.459,-5.4592,-5.4618,-5.4571,-5.4567,-5.4564,-5.4543,-5.4599,-5.4599,-5.4659,-5.4659,-5.466]},{"header":{"parameterUnit":"m.s-1","parameterCategory":1,"la1":30.2991,"la2":30.254,"lo1":-89.0895,"lo2":-89.0444,"dx":0.0017,"dy":0.0017,"nx":28,"ny":28,"refTime":"2022-12-13T15:00:00:Z","depth":0,"parameterNumber":3,"parameterNumberName":"V-component_of_WINDS"},"data":[0,0,0,0,0,0,0,0,0,0,0,0,0,0,0,0,0,0,0,0,0,0,0,0,0,0,0,0,0,0,0,0,0,0,0,0,0,0,0,0,0,0,0,0,0,0,0,0,0,0,0,0,0,0,0,0,0,0,2.896,2.896,0,2.8993,2.8993,2.8994,2.9,2.9,2.9,2.9,2.9031,2.9032,2.9033,0,0,0,0,0,0,0,0,0,0,0,0,0,2.8902,2.8903,2.896,2.896,2.8961,2.8993,2.8993,2.8994,2.9001,2.9,2.9,2.9,2.903,2.9031,2.9033,0,0,0,0,0,0,0,0,0,0,0,0,0,2.893,2.8903,2.896,2.8968,2.8969,2.8993,2.8993,2.8994,2.9001,2.9,2.9,2.9,2.903,2.9031,2.9033,2.905,0,0,2.9038,2.9038,0,0,0,0,0,0,0,0,2.8928,2.8932,2.8966,2.8968,2.8969,2.8992,2.8984,2.9013,2.9001,2.8989,2.9,2.8999,2.9018,2.902,2.9027,2.9051,2.9053,2.9038,2.9039,2.9039,2.904,0,0,0,0,0,0,0,2.8926,2.8931,2.8973,2.8967,2.8968,2.897,2.8973,2.899,2.9005,2.899,2.899,2.8994,2.9018,2.9026,2.9028,2.9053,2.9038,2.9039,2.904,2.9041,2.9095,2.9095,0,0,0,0,0,0,2.8923,2.8929,2.8972,2.8974,2.8947,2.8971,2.8975,2.8985,2.9005,2.9007,2.8994,2.8994,2.9023,2.9026,2.9029,2.9052,2.9039,2.9041,2.9042,2.9095,2.9095,2.9096,0,0,0,0,0,0,2.8922,2.8927,2.8971,2.8952,2.8957,2.8973,2.8984,2.8986,2.8993,2.9008,2.9011,2.8999,2.9023,2.9027,2.9045,2.9053,2.9042,2.9043,2.9094,2.9095,2.9095,2.9097,0,0,0,0,0,0,2.892,2.8926,2.8933,2.8952,2.8958,2.8986,2.8984,2.8987,2.8996,2.8997,2.9014,2.9016,2.9023,2.9043,2.9047,2.9055,2.9044,2.9093,2.9094,2.9095,2.9096,2.9097,2.9098,0,0,0,0,0,2.8918,2.8931,2.8933,2.8938,2.8967,2.8987,2.899,2.8999,2.8997,2.9004,2.9014,2.9015,2.9052,2.9045,2.9049,2.9058,2.9093,2.9094,2.9095,2.9095,2.9097,2.9098,0,0,0,0,0,0,2.8911,2.8933,2.8936,2.8956,2.897,2.8988,2.8997,2.9001,2.9014,2.9014,2.9024,2.9027,2.9046,2.9053,2.9046,2.9077,2.9072,2.9074,2.9071,2.9072,2.9074,2.9071,2.9046,0,0,0,0,0,2.8912,2.8927,2.8945,2.896,2.8967,2.8981,2.899,2.8996,2.901,2.9016,2.9027,2.904,2.9055,2.9064,2.9078,2.9097,2.9102,2.9106,2.9107,2.9108,2.9109,2.9122,2.9124,2.9099,2.9099,2.9099,0,0,2.8913,2.8927,2.8936,2.8959,2.8971,2.8986,2.8986,2.9001,2.9012,2.9018,2.9036,2.9045,2.9061,2.908,2.9089,2.9087,2.9118,2.9109,2.911,2.9111,2.9123,2.9126,2.9128,2.91,2.91,2.91,0,0,2.8924,2.8935,2.8951,2.8963,2.8981,2.899,2.8994,2.9013,2.902,2.9039,2.9044,2.9057,2.9082,2.9093,2.9102,2.912,2.9123,2.9125,2.9131,2.9143,2.9145,2.9147,2.9155,2.9157,2.9126,2.9126,2.9126,0,2.8923,2.8946,2.8957,2.8974,2.8985,2.8992,2.9008,2.9019,2.904,2.9047,2.9045,2.9078,2.9088,2.9112,2.9117,2.9123,2.9128,2.9123,2.9144,2.9146,2.9148,2.9156,2.9158,2.9126,2.9126,2.9126,2.9126,0,2.8945,2.8962,2.8972,2.8994,2.9006,2.9022,2.9036,2.9046,2.9052,2.9062,2.9082,2.9096,2.9114,2.912,2.9124,2.9144,2.9143,2.9142,2.9138,2.9151,2.9158,2.9161,2.9127,2.9127,2.9127,2.9127,0,0,2.895,2.8981,2.8984,2.8996,2.9018,2.9031,2.9047,2.9067,2.9076,2.9091,2.9106,2.9128,2.9129,2.9139,2.9145,2.9156,2.9171,2.9154,2.9155,2.9158,2.9196,2.9196,2.92,2.9173,2.9174,2.9174,2.9195,0,2.8964,2.8995,2.9007,2.9032,2.9048,2.9057,2.9072,2.9087,2.9097,2.9112,2.9123,2.9139,2.9138,2.9145,2.9156,2.9167,2.9179,2.9166,2.9187,2.9188,2.9184,2.9203,2.9203,2.9222,2.9198,2.9198,2.9198,0,2.8983,2.9001,2.9029,2.9051,2.9059,2.9072,2.9092,2.9106,2.9124,2.9131,2.9144,2.915,2.9168,2.9163,2.9189,2.918,2.9189,2.9196,2.9197,2.92,2.9194,2.9207,2.9228,2.9231,2.9203,2.9202,2.9202,0,2.8986,2.9016,2.9037,2.9047,2.9073,2.9083,2.9094,2.9112,2.9123,2.9141,2.9148,2.9167,2.9177,2.9191,2.9203,2.9198,2.9228,2.9223,2.9234,2.9234,2.924,2.9239,2.9264,2.9245,2.9245,2.9245,2.9245,0,2.9,2.9017,2.9039,2.9052,2.9072,2.9086,2.9105,2.9116,2.9133,2.9148,2.9156,2.917,2.9184,2.9201,2.921,2.923,2.9234,2.9241,2.9243,2.924,2.924,2.9247,2.9246,2.9246,2.9246,2.9245,2.9245,0,2.9005,2.9021,2.9045,2.9069,2.9076,2.9089,2.911,2.9123,2.9135,2.9154,2.916,2.9178,2.9197,2.9211,2.9235,2.9241,2.9264,2.9266,2.9259,2.926,2.927,2.927,2.93,2.9306,2.9283,2.9283,2.9283,0,2.9013,2.9027,2.9054,2.9066,2.9078,2.9096,2.9109,2.9124,2.9137,2.916,2.9171,2.9191,2.9209,2.924,2.9255,2.9274,2.9277,2.9286,2.9279,2.9277,2.9278,2.9277,2.928,2.9287,2.9287,2.9288,2.9288,0,2.9026,2.9035,2.9053,2.9076,2.9092,2.911,2.9127,2.9136,2.9154,2.9169,2.919,2.9204,2.9231,2.9252,2.9273,2.9284,2.9289,2.929,2.9294,2.9291,2.9287,2.9291,2.9262,2.9289,2.9289,2.9289,2.9289,2.9289,2.9034,2.9048,2.907,2.9091,2.9107,2.9124,2.9138,2.9153,2.9172,2.9196,2.9203,2.9226,2.9246,2.9275,2.9287,2.9305,2.9304,2.9309,2.931,2.9311,2.9312,2.9284,2.9309,2.9309,2.9309,2.9309,2.9309,0,2.9049,2.9064,2.9084,2.911,2.9127,2.9133,2.9154,2.9167,2.9188,2.9206,2.9224,2.925,2.9271,2.9289,2.931,2.9322,2.9325,2.9327,2.9326,2.9329,2.9311,2.9306,2.9324,2.9324,2.9324,2.9324,2.9324,2.9324,2.9058,2.9082,2.9093,2.9126,2.9141,2.9164,2.9176,2.9192,2.9208,2.9237,2.9255,2.9267,2.9286,2.9309,2.9329,2.9334,2.9342,2.9344,2.9349,2.9332,2.933,2.9328,2.9324,2.9345,2.9345,2.9365,2.9365,2.9366]}]]